Stündliche Wetter Czuszow

Heute, 26 Oktober, Montag

Zeit Temperatur Niederschläge Wind Luftdruck Luftfeuchtigkeit
00:00 +10°C° 0 mm 2 m/S 734 mmHg 92%
01:00 +10°C° 0 mm 2 m/S 734 mmHg 92%
02:00 +10°C° 0 mm 2 m/S 734 mmHg 92%
03:00 +9°C° 0 mm 2 m/S 733 mmHg 92%
04:00 +9°C° 0 mm 2 m/S 733 mmHg 92%
05:00 +9°C° 0 mm 2 m/S 733 mmHg 92%
06:00 +9°C° 0 mm 2 m/S 733 mmHg 92%
07:00 +9°C° 0 mm 2 m/S 733 mmHg 91%
08:00 +12°C° 0 mm 2 m/S 733 mmHg 84%
09:00 +13°C° 0 mm 3 m/S 733 mmHg 77%
10:00 +16°C° 0 mm 3 m/S 732 mmHg 69%
11:00 +17°C° 0 mm 3 m/S 732 mmHg 66%
12:00 +18°C° 0 mm 3 m/S 732 mmHg 62%
13:00 +18°C° 0 mm 3 m/S 732 mmHg 59%
14:00 +18°C° 0 mm 3 m/S 732 mmHg 62%
15:00 +17°C° 0 mm 2 m/S 732 mmHg 66%
16:00 +16°C° 0 mm 2 m/S 732 mmHg 70%
17:00 +14°C° 0 mm 3 m/S 732 mmHg 71%
18:00 +14°C° 0 mm 3 m/S 732 mmHg 73%
19:00 +13°C° 0 mm 3 m/S 732 mmHg 75%
20:00 +13°C° 0 mm 3 m/S 732 mmHg 76%
21:00 +13°C° 0 mm 3 m/S 732 mmHg 77%
22:00 +13°C° 0 mm 3 m/S 732 mmHg 79%
23:00 +13°C° 0 mm 3 m/S 732 mmHg 80%

Morgen, 27 Oktober, Dienstag

Zeit Temperatur Niederschläge Wind Luftdruck Luftfeuchtigkeit
00:00 +13°C° 0 mm 2 m/S 733 mmHg 82%
01:00 +13°C° 0 mm 2 m/S 733 mmHg 84%
02:00 +12°C° 0 mm 2 m/S 733 mmHg 85%
03:00 +12°C° 0 mm 2 m/S 733 mmHg 86%
04:00 +12°C° 0 mm 1 m/S 733 mmHg 87%
05:00 +12°C° 0 mm 2 m/S 733 mmHg 87%
06:00 +12°C° 0 mm 2 m/S 733 mmHg 87%
07:00 +10°C° 0 mm 2 m/S 733 mmHg 87%
08:00 +12°C° 0 mm 3 m/S 733 mmHg 80%
09:00 +14°C° 0 mm 3 m/S 734 mmHg 72%
10:00 +17°C° 0 mm 3 m/S 734 mmHg 65%
11:00 +18°C° 0 mm 3 m/S 734 mmHg 61%
12:00 +19°C° 0 mm 3 m/S 734 mmHg 57%
13:00 +20°C° 0 mm 2 m/S 734 mmHg 53%
14:00 +19°C° 0 mm 2 m/S 734 mmHg 58%
15:00 +17°C° 0 mm 2 m/S 734 mmHg 63%
16:00 +16°C° 0 mm 2 m/S 734 mmHg 69%
17:00 +15°C° 0 mm 2 m/S 734 mmHg 72%
18:00 +15°C° 0 mm 2 m/S 734 mmHg 75%
19:00 +14°C° 0 mm 2 m/S 734 mmHg 78%
20:00 +13°C° 0 mm 2 m/S 734 mmHg 78%
21:00 +13°C° 0 mm 2 m/S 735 mmHg 78%
22:00 +13°C° 0 mm 2 m/S 735 mmHg 78%
23:00 +13°C° 0 mm 2 m/S 735 mmHg 81%

übermorgen, 28 Oktober, Mittwoch

Zeit Temperatur Niederschläge Wind Luftdruck Luftfeuchtigkeit
00:00 +12°C° 0 mm 2 m/S 735 mmHg 83%
01:00 +12°C° 0 mm 1 m/S 736 mmHg 86%
02:00 +11°C° 0 mm 1 m/S 736 mmHg 88%
03:00 +11°C° 0 mm 1 m/S 736 mmHg 90%
04:00 +11°C° 0 mm 1 m/S 736 mmHg 92%
05:00 +10°C° 0 mm 1 m/S 736 mmHg 92%
06:00 +9°C° 0 mm 0 m/S 736 mmHg 92%
07:00 +9°C° 0 mm 0 m/S 737 mmHg 93%
08:00 +10°C° 0 mm 0 m/S 737 mmHg 87%
09:00 +13°C° 0 mm 1 m/S 737 mmHg 81%
10:00 +14°C° 0 mm 1 m/S 737 mmHg 75%
11:00 +15°C° 0 mm 1 m/S 737 mmHg 72%
12:00 +16°C° 0 mm 2 m/S 737 mmHg 69%
13:00 +17°C° 0 mm 2 m/S 737 mmHg 66%
14:00 +16°C° 0 mm 2 m/S 736 mmHg 69%
15:00 +15°C° 0 mm 1 m/S 736 mmHg 73%
16:00 +15°C° 0 mm 1 m/S 736 mmHg 77%
17:00 +14°C° 0 mm 1 m/S 736 mmHg 79%
18:00 +14°C° 0 mm 1 m/S 737 mmHg 81%
19:00 +12°C° 0 mm 0 m/S 737 mmHg 83%
20:00 +12°C° 0 mm 0 m/S 737 mmHg 84%
21:00 +12°C° 0 mm 1 m/S 737 mmHg 85%
22:00 +12°C° 0 mm 1 m/S 737 mmHg 87%
23:00 +12°C° 0 mm 1 m/S 737 mmHg 88%

29 Oktober, Donnerstag

Zeit Temperatur Niederschläge Wind Luftdruck Luftfeuchtigkeit
00:00 +11°C° 0 mm 1 m/S 737 mmHg 89%
01:00 +10°C° 0 mm 2 m/S 737 mmHg 90%
02:00 +10°C° 0 mm 2 m/S 737 mmHg 91%
03:00 +10°C° 0 mm 2 m/S 737 mmHg 91%
04:00 +9°C° 0 mm 2 m/S 737 mmHg 91%
05:00 +9°C° 0 mm 2 m/S 738 mmHg 91%
06:00 +9°C° 0 mm 2 m/S 738 mmHg 91%
07:00 +9°C° 0 mm 2 m/S 738 mmHg 92%
08:00 +10°C° 0 mm 2 m/S 738 mmHg 85%
09:00 +13°C° 0 mm 2 m/S 738 mmHg 77%
10:00 +14°C° 0 mm 2 m/S 739 mmHg 70%
11:00 +14°C° 0 mm 3 m/S 739 mmHg 65%
12:00 +16°C° 0 mm 3 m/S 739 mmHg 59%
13:00 +17°C° 0 mm 3 m/S 739 mmHg 54%
14:00 +16°C° 0 mm 3 m/S 739 mmHg 59%
15:00 +14°C° 0 mm 3 m/S 739 mmHg 64%
16:00 +14°C° 0 mm 2 m/S 739 mmHg 69%
17:00 +13°C° 0 mm 2 m/S 739 mmHg 70%
18:00 +13°C° 0 mm 2 m/S 740 mmHg 72%
19:00 +12°C° 0 mm 2 m/S 740 mmHg 74%
20:00 +11°C° 0 mm 3 m/S 741 mmHg 76%
21:00 +11°C° 0 mm 3 m/S 741 mmHg 78%
22:00 +10°C° 0 mm 3 m/S 741 mmHg 80%
23:00 +10°C° 0 mm 3 m/S 741 mmHg 81%

30 Oktober, Freitag

Zeit Temperatur Niederschläge Wind Luftdruck Luftfeuchtigkeit
00:00 +9°C° 0 mm 3 m/S 741 mmHg 83%
01:00 +9°C° 0 mm 2 m/S 742 mmHg 84%
02:00 +9°C° 0 mm 3 m/S 742 mmHg 84%
03:00 +9°C° 0 mm 3 m/S 742 mmHg 83%
04:00 +8°C° 0 mm 3 m/S 742 mmHg 83%
05:00 +8°C° 0 mm 3 m/S 742 mmHg 82%
06:00 +9°C° 0 mm 3 m/S 742 mmHg 81%
07:00 +9°C° 0 mm 3 m/S 742 mmHg 79%
08:00 +10°C° 0 mm 4 m/S 742 mmHg 74%
09:00 +12°C° 0 mm 4 m/S 742 mmHg 69%
10:00 +13°C° 0 mm 5 m/S 742 mmHg 64%
11:00 +14°C° 0 mm 5 m/S 742 mmHg 64%
12:00 +14°C° 0 mm 4 m/S 742 mmHg 63%
13:00 +14°C° 0 mm 4 m/S 742 mmHg 63%
14:00 +14°C° 0 mm 3 m/S 742 mmHg 66%
15:00 +14°C° 0 mm 2 m/S 742 mmHg 69%
16:00 +13°C° 0 mm 2 m/S 742 mmHg 73%
17:00 +13°C° 0 mm 2 m/S 742 mmHg 74%
18:00 +13°C° 0 mm 2 m/S 742 mmHg 75%
19:00 +12°C° 0 mm 2 m/S 742 mmHg 76%
20:00 +12°C° 0 mm 2 m/S 742 mmHg 76%
21:00 +12°C° 0 mm 2 m/S 743 mmHg 76%
22:00 +10°C° 0 mm 2 m/S 743 mmHg 77%
23:00 +11°C° 0 mm 1 m/S 743 mmHg 77%

31 Oktober, Samstag

Zeit Temperatur Niederschläge Wind Luftdruck Luftfeuchtigkeit
00:00 +11°C° 0 mm 1 m/S 743 mmHg 77%
01:00 +10°C° 0 mm 1 m/S 743 mmHg 77%
02:00 +10°C° 0 mm 1 m/S 742 mmHg 78%
03:00 +10°C° 0 mm 1 m/S 742 mmHg 79%
04:00 +10°C° 0 mm 1 m/S 742 mmHg 80%
05:00 +10°C° 0 mm 1 m/S 742 mmHg 80%
06:00 +9°C° 0 mm 1 m/S 742 mmHg 80%
07:00 +9°C° 0 mm 1 m/S 742 mmHg 81%
Mehr zeigen

Wir brauchen deine Erlaubnis

Meteoprog und unser Service Anbieter werden persönliche Daten aufbewahren, so wie Cookies, Geräte Bezeichnung oder ähnliche Technologien von deinem Gerät und Prozess, so wie Persönliche Daten Inhalte und Werbungen, genauso wie social Media und den Verkehr zu analysieren.

  • Aufbewahrung und/oder Zugang zu deiner Geräte Informationen.

    Cookies, Geräte Bezeichnung oder andere Informationen, können aufbewahrt oder Zugang zu deinem Gerät erhalten, für den Grund, der oben angegeben wird.

  • Personalisierte Werbung und Inhalte, Messungen, Einblick in das Publikum und Produkt Entwicklung.

    Werbungen und Inhalte können personalisiert werden, basierend auf ein Profil. Mehr Daten können besser personalisierte Werbungen und Inhalte hinzufügen. Werbung und Inhalte können gezeigt und gemessen werden. Einblicke über das Publikum, welche die Werbung gesehen haben und den Inhalt, können abgeleitet werden. So wie Daten können genutzt werden, um es zu verbessern oder die Benutzer Erfahrung zu verbessern das System und die Software.

Wenn du “Ich stimme zu” klickst, erlaubst du uns, die Cookies zu benutzen die Geräte Bezeichnung, den Web oder ähnliche Technologien zu benutzen. Deine Settings, können in deinem Gerät bei deinem Browser geändert werden.

Für den bestimmten Zweck, berechtigten Interessen beruhen darauf, mehr als auf den Inhalt. Du kannst mehr darüber in unseren Privaten und Cookie Politik lesen.